EW7070 Weather Reports


Display with metric or nautical units.
time (UTC)temp
F
wind
direction
speed
MPH
gust
MPH
rain 1hr
in
rain 24hr
in
rain mn
in
humidity
%
barometer
mb
20260904064744 59 257 1.0 3.0 0.00 0.00 0.00 92 1014.0
20260904064511 59 239 1.0 2.0 0.00 0.00 0.00 91 1013.8
20260904063738 59 233 0.0 2.0 0.00 0.00 0.00 91 1013.7
20260904063211 59 233 0.0 2.0 0.00 0.00 0.00 91 1013.6
20260904062704 59 234 0.0 2.0 0.00 0.00 0.00 91 1013.7
20260904062140 59 232 1.0 2.0 0.00 0.00 0.00 91 1013.7
20260904061615 59 138 0.0 2.0 0.00 0.00 0.00 91 1013.7
20260904061345 60 41 0.0 2.0 0.00 0.00 0.00 91 1013.6
20260904060609 60 253 0.0 4.0 0.00 0.00 0.00 91 1013.7
20260904060107 60 253 1.0 4.0 0.00 0.00 0.00 91 1013.7
20260904055606 60 243 2.0 6.0 0.00 0.00 0.00 91 1013.8
20260904055107 60 217 2.0 6.0 0.00 0.00 0.00 91 1013.8
20260904054542 60 242 2.0 4.0 0.00 0.00 0.00 91 1013.6
20260904054043 60 263 2.0 4.0 0.00 0.00 0.00 91 1013.6
20260904053541 60 231 2.0 4.0 0.00 0.00 0.00 91 1013.3
20260904053314 60 252 2.0 5.0 0.00 0.00 0.00 91 1013.4
20260904052524 60 246 1.0 5.0 0.00 0.00 0.00 91 1013.3
20260904052025 60 217 1.0 3.0 0.00 0.00 0.00 91 1013.2
20260904051519 60 246 1.0 3.0 0.00 0.00 0.00 91 1013.2
20260904050950 60 255 1.0 3.0 0.00 0.00 0.00 90 1013.2
20260904050427 60 261 1.0 4.0 0.00 0.00 0.00 91 1013.4
20260904045827 60 201 1.0 4.0 0.00 0.00 0.00 90 1013.2
20260904045325 60 253 2.0 4.0 0.00 0.00 0.00 90 1013.2
20260904044759 60 247 2.0 4.0 0.00 0.00 0.00 91 1013.4
20260904044228 60 220 1.0 2.0 0.00 0.00 0.00 91 1013.1
20260904043701 60 106 1.0 3.0 0.00 0.00 0.00 90 1013.0
20260904043156 60 46 1.0 3.0 0.00 0.00 0.00 90 1013.2
20260904042644 60 64 1.0 3.0 0.00 0.00 0.00 90 1013.1
20260904042411 60 106 1.0 2.0 0.00 0.00 0.00 90 1013.2
20260904041637 60 177 1.0 3.0 0.00 0.00 0.00 90 1013.4
20260904041113 60 167 1.0 3.0 0.00 0.00 0.00 90 1013.3
20260904040542 61 238 2.0 4.0 0.00 0.00 0.00 90 1013.3
20260904040040 60 243 2.0 4.0 0.00 0.00 0.00 90 1013.3
20260904035511 60 81 1.0 4.0 0.00 0.00 0.00 90 1013.1
20260904034946 61 130 1.0 4.0 0.00 0.00 0.00 90 1013.6
20260904034416 61 140 2.0 4.0 0.00 0.00 0.00 90 1013.3
20260904034146 61 161 2.0 4.0 0.00 0.00 0.00 90 1013.2
20260904033403 61 154 2.0 4.0 0.00 0.00 0.00 90 1013.1
20260904032902 61 243 1.0 4.0 0.00 0.00 0.00 90 1013.4
20260904032348 61 247 1.0 4.0 0.00 0.00 0.00 90 1013.4
20260904031851 61 158 1.0 4.0 0.00 0.00 0.00 90 1013.2
20260904031323 61 132 1.0 4.0 0.00 0.00 0.00 90 1013.2
20260904030824 61 285 1.0 4.0 0.00 0.00 0.00 90 1013.3
20260904030305 61 231 1.0 3.0 0.00 0.00 0.00 90 1013.0
20260904025759 61 216 1.0 7.0 0.00 0.00 0.00 90 1013.1
20260904025259 61 160 2.0 7.0 0.00 0.00 0.00 90 1012.9
20260904024757 61 133 2.0 9.0 0.00 0.00 0.00 89 1013.0
20260904024256 61 210 2.0 9.0 0.00 0.00 0.00 89 1012.8
20260904023730 61 106 2.0 7.0 0.00 0.00 0.00 89 1012.7
20260904023227 62 145 2.0 7.0 0.00 0.00 0.00 89 1012.8
20260904022655 62 131 2.0 5.0 0.00 0.00 0.00 89 1012.5
20260904022359 62 145 2.0 7.0 0.00 0.00 0.00 89 1012.5
20260904021625 62 133 3.0 7.0 0.00 0.00 0.00 88 1012.7
20260904021346 62 122 2.0 5.0 0.00 0.00 0.00 88 1012.7
20260904020612 63 139 2.0 5.0 0.00 0.00 0.00 88 1012.8
20260904020109 63 124 4.0 10.0 0.00 0.00 0.00 88 1012.7
20260904015605 63 114 4.0 10.0 0.00 0.00 0.00 87 1012.4
20260904015047 64 112 2.0 5.0 0.00 0.00 0.00 87 1012.2
20260904014752 64 93 2.0 5.0 0.00 0.00 0.00 87 1012.2
20260904014240 65 99 3.0 7.0 0.00 0.00 0.00 86 1012.1
20260904013739 65 149 3.0 9.0 0.00 0.00 0.00 86 1012.0
20260904012942 65 244 3.0 7.0 0.00 0.00 0.00 86 1011.8
20260904012428 66 108 2.0 6.0 0.00 0.00 0.00 87 1011.7
20260904011930 66 228 2.0 4.0 0.00 0.00 0.00 86 1011.9
20260904011403 67 143 2.0 4.0 0.00 0.00 0.00 86 1011.7
20260904010859 67 126 4.0 9.0 0.00 0.00 0.00 86 1011.5
20260904010348 67 116 5.0 9.0 0.00 0.00 0.00 85 1011.4
20260904005839 68 101 3.0 9.0 0.00 0.00 0.00 85 1011.3
20260904005337 68 87 2.0 7.0 0.00 0.00 0.00 86 1011.5
20260904004827 68 72 2.0 7.0 0.00 0.00 0.00 86 1011.6
20260904004328 68 135 2.0 5.0 0.00 0.00 0.00 87 1012.0
20260904003802 69 226 0.0 5.0 0.00 0.00 0.00 88 1012.1
20260904003250 69 236 0.0 0.0 0.00 0.00 0.00 89 1011.7
20260904003025 69 195 0.0 0.0 0.00 0.00 0.00 88 1011.6
20260904002235 69 195 0.0 0.0 0.00 0.00 0.00 88 1011.4
20260904001734 69 195 0.0 0.0 0.00 0.00 0.00 87 1011.5
20260904001228 69 195 0.0 2.0 0.00 0.00 0.00 86 1011.3
20260904000707 69 187 0.0 2.0 0.00 0.00 0.00 86 1011.2
20260904000700 69 195 1.0 2.0 0.00 0.00 0.00 86 1011.3
20260903235653 69 287 0.0 2.0 0.00 0.00 0.00 86 1011.1
20260903235149 69 316 0.0 2.0 0.00 0.00 0.00 85 1011.2
20260903234645 70 316 0.0 1.0 0.00 0.00 0.00 85 1010.9
20260903234143 70 316 0.0 1.0 0.00 0.00 0.00 84 1011.0
20260903233637 70 316 0.0 2.0 0.00 0.00 0.00 84 1010.9
20260903233135 70 316 1.0 2.0 0.00 0.00 0.00 83 1010.8
20260903232839 70 43 1.0 2.0 0.00 0.00 0.00 83 1010.8
20260903232106 70 18 0.0 2.0 0.00 0.00 0.00 82 1010.9
20260903231609 71 264 1.0 4.0 0.00 0.00 0.00 83 1011.0
20260903231323 71 264 1.0 4.0 0.00 0.00 0.00 82 1011.0
20260903230552 71 266 0.0 3.0 0.00 0.00 0.00 82 1011.0
20260903230054 71 235 0.0 0.0 0.00 0.00 0.00 82 1010.8
20260903225527 71 235 0.0 0.0 0.00 0.00 0.00 82 1010.6
20260903225011 72 235 0.0 2.0 0.00 0.00 0.00 79 1010.6
20260903224511 72 235 0.0 2.0 0.00 0.00 0.00 79 1010.3
20260903224009 72 96 0.0 2.0 0.00 0.00 0.00 78 1010.3
20260903223456 73 96 0.0 2.0 0.00 0.00 0.00 78 1010.2
20260903223226 73 275 0.0 2.0 0.00 0.00 0.00 76 1010.2
20260903222452 74 332 0.0 0.0 0.00 0.00 0.00 75 1010.1
20260903221927 74 332 0.0 2.0 0.00 0.00 0.00 73 1009.9
20260903221421 74 332 0.0 2.0 0.00 0.00 0.00 74 1009.8
20260903220917 75 292 0.0 2.0 0.00 0.00 0.00 74 1009.9
20260903220352 75 292 0.0 2.0 0.00 0.00 0.00 72 1009.9
20260903215824 76 292 1.0 2.0 0.00 0.00 0.00 69 1009.8
20260903215317 76 292 1.0 3.0 0.00 0.00 0.00 69 1009.7
20260903215023 76 258 1.0 4.0 0.00 0.00 0.00 67 1009.7
20260903214248 76 243 1.0 4.0 0.00 0.00 0.00 65 1009.6
20260903213748 77 211 1.0 2.0 0.00 0.00 0.00 66 1009.5
20260903213249 78 267 1.0 3.0 0.00 0.00 0.00 66 1009.6
20260903212749 78 270 1.0 4.0 0.00 0.00 0.00 63 1009.5
20260903212237 78 214 2.0 5.0 0.00 0.00 0.00 60 1009.5
20260903211735 78 224 1.0 5.0 0.00 0.00 0.00 58 1009.2
20260903211231 79 248 1.0 3.0 0.00 0.00 0.00 58 1009.2
20260903210932 79 278 1.0 4.0 0.00 0.00 0.00 60 1009.2
20260903210158 79 270 1.0 4.0 0.00 0.00 0.00 59 1009.0
20260903205656 80 204 1.0 4.0 0.00 0.00 0.00 56 1009.0
20260903205132 80 254 1.0 4.0 0.00 0.00 0.00 55 1008.9
20260903204621 80 262 2.0 8.0 0.00 0.00 0.00 56 1008.9
20260903204120 80 316 2.0 8.0 0.00 0.00 0.00 54 1008.9
20260903203606 81 270 2.0 7.0 0.00 0.00 0.00 55 1008.7
20260903203111 81 243 2.0 4.0 0.00 0.00 0.00 54 1008.6
20260903202600 81 292 2.0 6.0 0.00 0.00 0.00 55 1008.5
20260903202058 82 257 2.0 6.0 0.00 0.00 0.00 54 1008.6
20260903201540 82 237 2.0 7.0 0.00 0.00 0.00 55 1008.7
20260903201017 83 289 2.0 7.0 0.00 0.00 0.00 53 1008.5
20260903200446 83 237 2.0 8.0 0.00 0.00 0.00 53 1008.4
20260903195944 83 350 1.0 8.0 0.00 0.00 0.00 53 1008.4
20260903195442 83 268 0.0 6.0 0.00 0.00 0.00 53 1008.3
20260903194945 82 187 1.0 3.0 0.00 0.00 0.00 54 1008.3
20260903194441 82 253 1.0 6.0 0.00 0.00 0.00 54 1008.3
20260903193942 82 245 1.0 7.0 0.00 0.00 0.00 52 1008.3
20260903193415 82 160 3.0 12.0 0.00 0.00 0.00 51 1008.3
20260903192849 82 294 3.0 12.0 0.00 0.00 0.00 53 1008.2
20260903192337 82 353 3.0 11.0 0.00 0.00 0.00 53 1008.1
20260903191811 82 338 3.0 7.0 0.00 0.00 0.00 53 1008.1
20260903191300 82 317 3.0 14.0 0.00 0.00 0.00 51 1008.0
20260903190801 82 285 4.0 14.0 0.00 0.00 0.00 49 1008.0
20260903190230 82 269 2.0 13.0 0.00 0.00 0.00 50 1008.0
20260903185729 82 333 0.0 7.0 0.00 0.00 0.00 54 1008.1
20260903185224 82 333 0.0 7.0 0.00 0.00 0.00 56 1008.1
20260903184720 82 237 2.0 7.0 0.00 0.00 0.00 53 1008.2
20260903184219 82 278 2.0 7.0 0.00 0.00 0.00 52 1008.3
20260903183655 82 291 2.0 7.0 0.00 0.00 0.00 54 1008.3
20260903183127 83 276 2.0 7.0 0.00 0.00 0.00 54 1008.4
20260903182604 83 342 3.0 9.0 0.00 0.00 0.00 51 1008.3
20260903182033 83 240 3.0 9.0 0.00 0.00 0.00 50 1008.3
20260903181523 83 347 2.0 8.0 0.00 0.00 0.00 49 1008.4
20260903181010 83 303 2.0 7.0 0.00 0.00 0.00 49 1008.5
20260903180508 83 271 1.0 7.0 0.00 0.00 0.00 50 1008.5
20260903180009 83 314 1.0 9.0 0.00 0.00 0.00 51 1008.6
20260903175442 82 245 3.0 9.0 0.00 0.00 0.00 51 1008.6
20260903174941 82 19 4.0 9.0 0.00 0.00 0.00 52 1008.6
20260903174437 82 276 3.0 14.0 0.00 0.00 0.00 49 1008.8
20260903173932 83 320 4.0 14.0 0.00 0.00 0.00 52 1008.8
20260903173422 83 266 6.0 16.0 0.00 0.00 0.00 49 1008.7
20260903172922 83 262 7.0 16.0 0.00 0.00 0.00 50 1008.7
20260903172421 84 306 7.0 17.0 0.00 0.00 0.00 48 1008.8
20260903171856 84 339 6.0 17.0 0.00 0.00 0.00 48 1008.8
20260903171332 84 8 5.0 12.0 0.00 0.00 0.00 51 1008.8
20260903170828 83 353 5.0 13.0 0.00 0.00 0.00 53 1009.0
20260903170327 83 326 6.0 13.0 0.00 0.00 0.00 52 1009.1
20260903165759 82 337 5.0 14.0 0.00 0.00 0.00 52 1009.3
20260903165250 82 94 4.0 15.0 0.00 0.00 0.00 54 1009.3
20260903164751 82 349 5.0 11.0 0.00 0.00 0.00 54 1009.5
20260903164502 82 14 5.0 12.0 0.00 0.00 0.00 51 1009.6
20260903163730 82 343 5.0 13.0 0.00 0.00 0.00 51 1009.7
20260903163223 82 301 7.0 17.0 0.00 0.00 0.00 52 1009.7
20260903162941 82 323 6.0 17.0 0.00 0.00 0.00 51 1009.9
20260903162204 82 316 5.0 14.0 0.00 0.00 0.00 52 1010.0
20260903161657 82 33 7.0 15.0 0.00 0.00 0.00 51 1010.0
20260903161419 82 345 8.0 21.0 0.00 0.00 0.00 53 1010.0
20260903160640 82 344 7.0 21.0 0.00 0.00 0.00 51 1010.2
20260903160113 83 282 7.0 15.0 0.00 0.00 0.00 54 1010.3
20260903155608 82 312 9.0 20.0 0.00 0.00 0.00 56 1010.4
20260903155043 82 322 7.0 20.0 0.00 0.00 0.00 55 1010.5
20260903154543 82 308 4.0 13.0 0.00 0.00 0.00 59 1010.7
20260903154027 82 345 4.0 11.0 0.00 0.00 0.00 59 1010.7
20260903153526 81 358 4.0 11.0 0.00 0.00 0.00 60 1010.9
20260903153004 81 0 4.0 12.0 0.00 0.00 0.00 62 1011.0
20260903152436 80 310 5.0 12.0 0.00 0.00 0.00 63 1011.0
20260903151934 80 341 5.0 13.0 0.00 0.00 0.00 65 1011.1
20260903151432 79 343 5.0 13.0 0.00 0.00 0.00 61 1011.2
20260903150924 79 295 5.0 10.0 0.00 0.00 0.00 62 1011.5
20260903150425 79 39 6.0 12.0 0.00 0.00 0.00 61 1011.6
20260903145904 78 35 7.0 12.0 0.00 0.00 0.00 62 1011.8
20260903145336 78 343 6.0 12.0 0.00 0.00 0.00 62 1011.9
20260903144808 78 18 6.0 13.0 0.00 0.00 0.00 61 1011.9
20260903144254 78 47 5.0 13.0 0.00 0.00 0.00 62 1012.1
20260903143754 78 10 5.0 11.0 0.00 0.00 0.00 62 1012.2
20260903143254 78 15 5.0 10.0 0.00 0.00 0.00 63 1012.2
20260903142752 77 65 4.0 10.0 0.00 0.00 0.00 64 1012.3
20260903142253 77 7 4.0 9.0 0.00 0.00 0.00 65 1012.4
20260903141754 77 337 4.0 9.0 0.00 0.00 0.00 65 1012.5
20260903141521 76 12 5.0 10.0 0.00 0.00 0.00 66 1012.5
20260903140749 76 353 6.0 15.0 0.00 0.00 0.00 65 1012.7
20260903140221 76 352 5.0 15.0 0.00 0.00 0.00 64 1012.8
20260903135715 76 273 5.0 12.0 0.00 0.00 0.00 64 1012.8
20260903135149 75 337 5.0 12.0 0.00 0.00 0.00 65 1012.8
20260903134645 75 22 5.0 10.0 0.00 0.00 0.00 64 1012.9
20260903134114 75 35 4.0 11.0 0.00 0.00 0.00 65 1012.8
20260903133613 74 42 5.0 14.0 0.00 0.00 0.00 65 1013.1
20260903133333 74 347 5.0 14.0 0.00 0.00 0.00 65 1012.9
20260903132601 74 280 6.0 14.0 0.00 0.00 0.00 67 1013.0
20260903132033 73 334 5.0 14.0 0.00 0.00 0.00 66 1013.1
20260903131507 73 3 5.0 10.0 0.00 0.00 0.00 67 1013.2
20260903131231 73 33 5.0 14.0 0.00 0.00 0.00 67 1013.3
20260903130458 72 44 6.0 14.0 0.00 0.00 0.00 68 1013.5
20260903125942 71 334 4.0 10.0 0.00 0.00 0.00 70 1013.5
20260903125438 71 266 4.0 9.0 0.00 0.00 0.00 72 1013.7
20260903124939 71 299 5.0 9.0 0.00 0.00 0.00 71 1013.9
20260903124413 70 348 4.0 9.0 0.00 0.00 0.00 72 1013.8
20260903123848 69 322 3.0 8.0 0.00 0.00 0.00 72 1013.8
20260903123321 69 351 3.0 8.0 0.00 0.00 0.00 76 1013.9
20260903122817 68 301 2.0 7.0 0.00 0.00 0.00 77 1013.9
20260903122754 67 314 3.0 7.0 0.00 0.00 0.00 77 1014.0
20260903121750 67 260 3.0 8.0 0.00 0.00 0.00 78 1014.0
20260903121249 66 260 4.0 8.0 0.00 0.00 0.00 79 1014.0
20260903120749 66 291 4.0 8.0 0.00 0.00 0.00 78 1014.1
20260903120250 65 291 4.0 8.0 0.00 0.00 0.00 79 1014.0
20260903115746 65 292 4.0 8.0 0.00 0.00 0.00 81 1014.1
20260903115242 64 283 4.0 8.0 0.00 0.00 0.00 81 1014.1
20260903114715 64 294 5.0 10.0 0.00 0.00 0.00 81 1014.1
20260903114150 63 297 5.0 10.0 0.00 0.00 0.00 81 1014.2
20260903113621 63 299 5.0 10.0 0.00 0.00 0.00 81 1014.1
20260903113120 62 318 3.0 9.0 0.00 0.00 0.00 83 1014.2
20260903112608 62 328 3.0 9.0 0.00 0.00 0.00 83 1014.0
20260903112043 61 288 4.0 10.0 0.00 0.00 0.00 84 1014.1
20260903111527 61 304 3.0 10.0 0.00 0.00 0.00 84 1014.1
20260903111028 60 312 3.0 10.0 0.00 0.00 0.00 85 1014.0
20260903110523 60 342 3.0 8.0 0.00 0.00 0.00 86 1014.1
20260903110018 59 292 4.0 7.0 0.00 0.00 0.00 87 1014.0
20260903105514 59 274 5.0 10.0 0.00 0.00 0.00 87 1013.9
20260903105010 59 278 5.0 10.0 0.00 0.00 0.00 88 1014.0
20260903104511 58 262 4.0 8.0 0.00 0.00 0.00 89 1013.8
20260903104007 58 263 3.0 7.0 0.00 0.00 0.00 91 1013.7
20260903103508 57 262 1.0 6.0 0.00 0.00 0.00 93 1013.6
20260903103010 57 45 0.0 4.0 0.00 0.00 0.00 93 1013.4
20260903102453 56 270 0.0 3.0 0.00 0.00 0.00 93 1013.1
20260903102225 56 12 0.0 3.0 0.00 0.00 0.00 91 1013.0
20260903101426 56 135 0.0 3.0 0.00 0.00 0.00 91 1013.1
20260903100901 56 297 0.0 2.0 0.00 0.00 0.00 90 1013.1
20260903100335 56 293 0.0 2.0 0.00 0.00 0.00 89 1013.0
20260903095831 57 291 1.0 7.0 0.00 0.00 0.00 88 1012.9
20260903095329 57 297 2.0 7.0 0.00 0.00 0.00 87 1012.9
20260903094824 57 321 4.0 8.0 0.00 0.00 0.00 87 1012.8
20260903094314 58 289 6.0 10.0 0.00 0.00 0.00 87 1012.8
20260903093810 58 301 7.0 14.0 0.00 0.00 0.00 87 1012.5
20260903093246 57 293 8.0 14.0 0.00 0.00 0.00 88 1012.3
20260903092717 57 274 8.0 11.0 0.00 0.00 0.00 90 1012.1
20260903092204 56 258 8.0 13.0 0.00 0.00 0.00 92 1011.9
20260903091701 56 241 8.0 13.0 0.00 0.00 0.00 95 1011.6
20260903091149 55 241 6.0 13.0 0.00 0.00 0.00 99 1011.3
20260903090651 54 252 3.0 10.0 0.00 0.00 0.00 99 1010.6
20260903090125 53 299 3.0 7.0 0.00 0.00 0.00 99 1010.2
20260903085611 52 228 4.0 9.0 0.00 0.00 0.00 99 1009.9
20260903085114 51 252 4.0 9.0 0.00 0.00 0.00 99 1009.8
20260903084823 51 177 3.0 9.0 0.00 0.00 0.00 99 1009.4
20260903084052 51 139 2.0 6.0 0.00 0.00 0.00 99 1008.9
20260903083822 51 177 3.0 9.0 0.00 0.00 0.00 98 1008.8
20260903083053 50 62 2.0 9.0 0.00 0.00 0.00 98 1008.7
20260903082754 51 118 1.0 3.0 0.00 0.00 0.00 98 1008.8
20260903082021 51 51 3.0 8.0 0.00 0.00 0.00 99 1008.7
20260903081453 51 154 3.0 8.0 0.00 0.00 0.00 99 1008.6
20260903080926 50 126 2.0 5.0 0.00 0.00 0.00 99 1008.7
20260903080419 49 230 2.0 5.0 0.00 0.00 0.00 99 1008.8
20260903075913 49 141 1.0 4.0 0.00 0.00 0.00 98 1008.8
20260903075412 48 23 2.0 4.0 0.00 0.00 0.00 98 1008.9
20260903074844 48 292 1.0 4.0 0.00 0.00 0.00 98 1008.9
20260903074316 48 329 1.0 3.0 0.00 0.00 0.00 98 1009.0
20260903073753 48 237 2.0 4.0 0.00 0.00 0.00 98 1009.0
20260903073525 48 18 2.0 4.0 0.00 0.00 0.00 98 1009.0
20260903072754 47 337 2.0 6.0 0.00 0.00 0.00 98 1009.3
20260903072254 47 63 1.0 6.0 0.00 0.00 0.00 98 1009.4
20260903071725 47 147 1.0 4.0 0.00 0.00 0.00 98 1009.4
20260903071501 46 357 0.0 2.0 0.00 0.00 0.00 98 1009.8
20260903071221 46 300 0.0 2.0 0.00 0.00 0.00 98 1009.6
20260903070213 46 22 1.0 4.0 0.00 0.00 0.00 98 1009.8
20260903065710 46 226 1.0 4.0 0.00 0.00 0.00 98 1009.7